Theta_e
345 349 349 345 336 334 336 333 329 332 333 330 328 330 337 340 325 323 352 357 335 338 352 345 339 340 338 337 338 338 338 340 340 341 343 344 343 343 344 346 347 349 350 343 334 334 338 337 337 337 335 333 331 330 327 325 326 327 326 326 326 326 326 326 326 326 326 327 329 330 330 330 331 331 331 329 328 328 328 328 328 328 328 329 330 331 330
335 341 343 341 333 331 332 331 332 334 333 331 331 334 341 339 330 334 344 345 342 341 340 342 343 342 341 340 339 339 339 340 340 340 343 343 343 346 347 347 347 347 347 340 331 334 338 337 338 337 333 332 331 328 325 323 324 325 326 326 327 326 327 327 326 325 325 327 328 328 329 329 331 332 332 330 329 328 329 328 329 329 328 328 328 330 330
328 343 343 337 334 333 329 332 342 341 334 335 335 334 338 335 333 341 338 333 342 345 343 349 349 344 345 343 340 340 339 338 340 340 341 342 344 348 348 345 345 346 346 337 329 332 337 336 337 335 332 331 330 328 326 324 324 325 326 326 327 327 326 327 327 326 325 327 327 327 327 328 330 332 332 332 330 330 329 327 328 329 329 329 328 329 329
325 339 336 334 340 335 326 330 340 341 334 333 332 333 340 337 337 342 333 327 343 353 346 346 344 340 343 341 339 340 337 337 339 339 341 343 345 347 346 342 342 347 350 341 330 331 335 335 335 333 331 331 329 328 328 325 325 326 326 327 327 327 326 326 328 326 325 327 327 326 326 326 328 331 332 333 332 330 329 328 328 329 329 329 328 328 329
328 340 334 337 345 332 327 339 347 341 336 334 332 336 341 342 343 342 332 334 352 354 344 346 342 338 341 340 338 338 338 338 338 337 339 341 342 346 343 341 344 346 344 336 331 332 334 334 333 331 331 331 329 329 328 326 326 326 326 327 326 325 325 326 327 326 326 327 326 325 326 326 327 329 331 333 332 329 328 327 327 329 328 328 327 327 329
330 344 341 337 334 325 331 355 356 338 331 332 332 335 338 341 345 343 339 349 358 348 345 353 347 338 339 338 336 336 337 337 338 338 338 337 341 344 339 340 343 339 332 329 331 333 333 332 332 331 331 330 329 329 328 327 327 326 326 327 326 325 326 326 327 326 325 326 326 325 327 327 328 329 331 333 331 327 326 326 327 329 328 328 327 327 329
332 338 335 327 329 334 347 360 350 334 333 336 334 336 342 346 349 349 349 357 358 347 344 345 339 337 338 336 336 337 336 336 336 337 337 336 338 340 339 341 339 331 328 330 331 332 332 331 332 331 331 330 329 330 329 329 328 327 326 327 327 326 327 327 327 327 325 325 326 326 327 328 329 330 331 331 328 325 325 326 326 328 328 328 328 328 329
334 331 327 328 336 348 352 351 343 336 336 337 332 333 342 346 348 355 359 356 351 342 338 337 338 339 340 336 335 336 335 335 335 335 337 336 336 339 339 337 333 328 328 331 331 331 332 331 331 332 331 331 330 330 330 329 329 328 327 327 327 327 327 327 328 326 325 325 324 324 326 328 330 330 329 327 326 324 325 326 327 328 328 328 328 328 328
337 335 331 334 335 336 340 341 338 334 334 336 332 332 341 348 345 351 357 350 343 340 339 340 340 340 339 337 337 336 335 335 335 335 335 333 332 334 332 329 329 329 330 332 331 331 331 330 331 332 331 331 331 331 331 330 330 329 328 327 327 327 327 328 328 325 324 324 322 323 326 328 328 329 328 326 325 325 326 326 327 328 329 328 329 329 328
340 334 328 330 327 328 341 350 343 336 336 341 336 331 342 356 350 344 348 346 344 344 341 339 340 340 341 343 342 340 337 336 337 336 332 327 327 329 328 327 329 329 330 331 331 330 331 330 331 331 331 331 331 331 331 331 330 329 329 328 328 328 328 328 325 324 323 324 323 324 327 327 327 328 327 326 326 326 327 327 327 327 328 328 328 329 328
334 325 322 327 325 327 344 354 348 341 337 339 336 328 338 355 351 342 344 344 343 342 338 339 342 341 343 345 343 342 342 339 336 335 333 328 326 328 329 329 330 330 330 330 330 330 331 330 331 331 331 331 332 331 331 331 331 330 329 329 329 329 329 328 326 325 324 324 323 323 326 327 327 326 326 326 325 326 326 328 327 325 325 325 325 328 329
332 326 325 329 326 330 346 356 352 344 336 333 330 326 338 358 352 342 345 343 340 339 336 338 340 339 344 350 347 345 345 339 333 332 334 332 328 328 330 330 330 331 331 330 331 331 331 330 331 331 331 331 331 331 331 331 331 330 330 331 330 329 329 329 328 325 323 323 323 322 324 325 324 324 324 323 323 325 326 327 327 325 323 323 322 323 327
331 328 326 327 329 338 350 354 350 343 334 328 326 329 345 361 351 342 342 340 337 337 338 338 338 339 347 354 350 344 341 339 337 333 330 329 329 329 330 330 330 330 330 331 331 331 330 330 330 330 330 330 331 330 331 331 331 331 330 330 329 327 329 330 328 325 323 322 322 322 322 323 322 322 322 321 321 325 326 325 326 325 323 322 321 320 323
330 332 329 326 331 341 345 343 341 336 328 329 337 344 349 351 345 341 340 338 337 338 338 340 345 349 351 350 346 341 338 340 344 338 330 328 329 329 329 330 330 330 330 331 331 331 330 329 329 328 328 329 330 331 331 331 329 327 327 328 327 327 327 329 328 326 323 321 321 321 321 322 322 321 320 320 321 322 324 323 325 326 324 322 322 321 321
331 330 326 323 330 339 338 332 332 334 335 341 349 349 343 341 341 339 337 338 340 340 338 342 349 354 349 343 341 342 340 340 341 338 332 328 327 327 328 330 330 329 329 330 330 330 329 328 328 328 328 330 331 331 330 328 325 325 327 327 328 328 328 330 329 326 323 321 321 322 321 321 321 320 320 321 321 321 322 322 323 325 325 323 322 322 321
333 328 326 330 339 341 335 332 341 350 353 352 347 340 339 340 341 341 340 341 342 342 343 346 348 346 343 340 339 340 339 340 339 336 330 326 326 327 328 329 330 329 328 329 330 328 327 327 327 327 328 330 331 329 328 325 324 327 329 328 329 330 330 330 328 323 321 322 322 321 320 319 320 320 320 322 321 322 322 322 323 324 325 324 323 322 322
343 340 338 342 346 342 335 340 353 355 348 343 340 338 338 340 340 342 341 341 343 342 342 345 346 344 345 346 344 341 341 343 340 334 329 325 325 328 328 329 330 329 328 328 327 326 325 326 326 327 329 330 329 327 325 325 327 329 328 327 328 329 330 330 326 322 322 322 321 321 320 320 320 321 322 322 322 322 322 321 321 322 323 323 323 323 322
340 339 337 341 344 343 338 337 341 340 337 338 339 338 338 340 343 342 340 343 348 343 341 343 344 344 347 349 346 345 346 345 339 331 327 326 325 326 328 329 329 329 327 326 325 325 325 325 326 327 328 327 326 325 326 326 328 329 327 325 325 327 330 329 324 322 322 321 320 321 320 320 320 321 321 322 321 322 322 321 321 322 322 323 323 323 323
335 332 335 337 336 337 339 335 334 337 339 341 342 343 343 345 349 346 342 344 345 342 344 348 346 345 349 349 347 348 348 346 343 336 328 324 324 325 326 327 328 328 326 324 325 325 325 325 325 325 326 325 325 327 328 328 328 328 325 324 325 328 330 328 323 321 321 320 321 322 321 320 321 321 322 322 321 322 322 321 321 321 321 322 323 323 323
335 330 332 333 330 331 336 337 338 337 335 337 339 340 340 341 343 343 339 340 340 338 342 346 343 341 343 345 346 348 348 347 346 337 326 322 323 324 325 325 327 327 326 325 325 325 324 325 325 325 326 327 328 329 329 328 327 326 324 325 327 328 328 325 322 321 321 320 321 322 321 320 321 321 322 322 322 322 322 321 321 321 321 322 322 322 323
331 328 329 331 331 331 330 333 335 333 331 334 337 336 337 338 339 339 338 338 338 336 336 344 347 343 340 344 348 349 349 350 344 331 323 321 322 323 323 323 325 326 326 325 325 325 326 325 326 327 327 327 328 329 328 327 327 325 324 326 328 328 325 323 322 321 321 321 322 321 321 321 321 321 322 323 322 322 322 321 320 321 320 321 321 322 322
332 338 339 338 338 336 330 330 332 330 331 336 337 337 339 339 338 340 340 338 336 332 331 338 349 348 341 340 346 351 352 347 334 323 321 322 323 323 323 324 325 327 326 325 325 326 326 326 327 327 327 326 327 328 328 328 327 324 323 325 326 326 324 322 321 322 322 322 322 321 320 321 321 322 323 323 322 322 321 321 320 320 320 320 321 321 322
341 346 343 343 347 344 335 333 335 332 331 335 336 337 339 339 339 341 341 338 338 336 331 328 335 346 345 335 338 348 347 335 325 323 324 325 325 325 326 325 326 327 326 326 326 325 326 327 327 326 326 326 326 327 327 328 326 324 323 324 324 324 323 322 322 322 322 322 321 321 321 322 322 322 323 323 323 322 322 321 320 320 320 320 320 321 321
338 338 339 343 347 341 334 336 340 336 333 334 336 336 337 340 340 338 338 341 340 340 338 328 323 331 335 327 329 342 341 327 322 324 327 326 327 327 327 327 327 327 326 326 326 326 326 327 326 326 326 325 326 326 325 326 325 324 324 324 323 323 322 322 322 322 321 322 322 322 321 322 322 323 324 323 323 322 322 321 320 320 320 320 319 320 320
332 340 343 341 341 337 333 334 336 336 334 334 334 335 336 338 336 333 338 344 337 333 340 338 325 321 323 321 323 331 332 325 323 324 325 325 326 326 325 326 326 326 326 326 327 326 326 326 325 325 325 325 325 325 325 325 325 325 325 325 325 324 323 322 322 321 321 322 322 322 323 322 323 324 324 323 323 323 322 321 320 320 320 319 319 319 319
338 342 336 332 332 333 331 330 330 332 333 331 334 339 336 333 333 331 332 334 328 324 328 333 327 322 320 321 322 324 324 324 325 324 323 323 322 322 322 322 322 324 325 325 325 324 323 324 324 325 325 325 325 324 325 326 326 326 326 327 327 325 324 323 321 321 322 323 322 323 323 323 323 323 323 322 323 322 321 321 320 320 319 319 319 319 319
333 334 331 329 329 328 329 330 330 331 329 327 333 339 332 326 328 329 325 324 324 323 322 324 323 322 321 322 324 324 324 325 325 323 321 320 320 320 320 319 320 322 322 322 321 320 321 323 324 324 325 325 324 324 324 326 326 326 327 326 325 324 323 322 324 325 324 323 323 323 324 324 323 323 322 322 322 321 320 320 319 319 319 319 319 319 320
330 330 330 328 327 327 329 330 330 331 329 326 326 328 324 322 326 329 330 331 329 326 325 324 323 323 323 324 324 325 326 325 323 321 321 320 320 320 319 319 319 320 319 319 319 320 321 324 324 324 323 323 324 323 324 325 326 326 326 326 325 325 323 324 326 327 324 323 324 324 324 323 322 322 322 321 320 320 319 318 317 317 317 317 318 319 320
331 331 331 333 331 331 331 330 330 333 331 325 322 323 324 328 332 332 334 335 331 330 331 328 324 323 324 324 324 325 324 323 322 321 321 321 320 320 319 318 318 318 318 320 321 321 323 323 323 324 323 322 322 323 322 323 324 324 325 326 325 324 323 323 324 324 323 323 324 324 323 323 322 321 321 320 319 319 318 318 317 316 315 314 315 316 318
334 332 332 334 331 329 330 332 332 333 333 331 330 328 329 332 335 333 332 332 333 334 331 325 324 325 325 324 324 323 322 322 322 322 322 322 321 320 320 319 319 320 321 322 322 322 323 323 323 324 324 322 321 322 322 323 323 322 323 326 325 323 322 322 323 323 324 324 324 323 322 322 322 321 320 319 318 318 317 317 316 315 313 312 311 311 312
334 330 330 331 329 327 331 332 331 331 331 330 332 331 329 330 333 332 331 332 334 332 327 322 322 323 322 323 324 324 323 323 323 322 322 321 321 321 320 320 321 323 323 323 323 322 322 323 322 322 321 321 322 322 321 322 323 322 322 324 325 323 322 322 323 323 323 322 322 322 322 321 320 320 319 318 317 317 316 315 315 314 312 310 308 307 309
331 328 328 329 329 329 329 329 330 330 329 327 329 330 328 328 331 331 330 330 328 326 324 324 323 321 321 323 324 323 323 323 322 321 323 323 322 322 322 321 322 324 323 322 322 321 321 321 319 318 318 319 320 320 320 321 321 321 321 322 323 323 323 323 322 322 321 321 320 320 319 319 319 319 318 317 316 315 315 314 314 313 311 309 307 305 306
330 329 329 329 329 329 329 328 328 328 326 325 327 327 326 327 330 329 326 324 322 319 319 321 322 321 323 325 324 322 322 321 321 322 323 324 323 323 322 322 322 322 320 320 320 320 320 320 319 317 317 319 320 320 320 320 320 320 322 322 323 323 322 322 321 320 319 318 318 317 317 317 317 316 316 316 315 315 314 313 312 311 310 309 306 304 304
328 329 328 328 328 328 328 327 325 325 324 323 323 325 325 324 324 321 319 320 320 319 318 318 319 321 322 323 322 321 321 322 323 323 323 324 323 322 321 321 321 319 318 318 318 318 318 318 317 316 315 316 319 321 321 321 321 322 323 322 321 321 320 319 318 317 316 315 315 314 314 314 314 314 313 313 313 313 312 311 310 309 308 308 306 303 302
326 327 326 325 325 325 325 324 323 322 322 322 323 324 322 320 318 319 319 319 319 319 317 317 319 319 319 319 320 319 319 321 322 322 323 323 322 321 320 319 317 316 315 315 315 315 315 316 317 317 316 317 319 321 321 322 322 322 321 319 318 318 317 316 314 313 312 311 311 311 311 311 311 311 310 309 309 309 309 309 309 308 307 306 305 303 301
325 329 329 327 325 324 323 322 321 320 322 322 323 323 321 319 319 321 320 317 317 317 317 318 319 318 317 318 319 318 319 320 321 321 323 323 321 319 318 316 314 314 314 313 312 312 312 314 317 318 318 319 319 320 320 321 321 319 318 317 316 315 314 312 311 310 309 308 308 307 307 308 308 307 307 307 306 306 307 307 307 307 306 305 304 303 301
323 325 327 325 322 321 320 319 319 319 319 320 320 320 320 319 319 319 318 317 317 317 317 318 318 317 318 319 321 321 321 322 322 322 322 320 318 316 314 313 313 313 312 312 312 312 312 315 317 318 318 317 317 316 316 317 317 317 316 315 314 313 311 310 308 307 306 305 305 304 304 304 304 304 304 305 304 305 305 304 304 304 304 303 303 302 301
321 321 321 321 320 318 318 318 318 318 318 319 318 317 318 318 317 317 317 317 316 316 316 317 317 317 318 320 320 320 321 321 321 319 317 315 314 313 312 312 312 311 311 312 312 312 313 315 316 316 316 315 315 314 313 313 314 314 313 312 310 309 308 306 305 304 303 302 302 301 301 301 301 302 302 303 303 303 303 302 302 302 301 301 300 300 299
320 320 319 319 318 317 317 318 318 317 318 319 317 317 317 317 317 317 317 316 316 316 316 316 316 317 317 318 318 318 319 319 318 316 313 312 312 311 310 309 310 310 311 312 313 313 314 315 315 314 314 313 312 311 310 310 310 310 308 307 306 306 305 305 304 303 302 302 301 300 299 299 300 300 300 300 300 301 301 301 300 300 299 299 299 298 297
323 321 320 319 319 318 317 317 317 317 317 317 317 317 318 317 317 317 317 317 317 316 316 316 316 316 316 316 316 316 317 317 315 313 312 311 310 309 308 308 308 309 311 312 312 312 313 313 313 312 311 311 310 309 308 308 308 307 306 305 305 304 303 303 303 302 302 302 301 300 300 299 299 299 298 298 298 298 298 298 298 298 298 299 298 297 296
322 320 319 319 319 318 317 318 318 318 318 317 317 317 318 317 317 317 317 318 317 316 316 317 317 316 315 316 316 317 316 315 313 312 311 310 309 309 308 308 309 310 311 312 311 311 311 310 310 310 309 308 308 307 306 306 306 305 304 304 303 302 302 302 301 301 300 300 300 300 300 299 299 299 297 296 296 296 296 297 297 297 297 298 298 296 294
320 320 320 320 319 318 318 319 319 318 318 318 317 317 317 317 317 317 317 317 317 316 316 318 317 317 317 317 316 316 316 315 313 312 311 309 308 309 308 308 309 310 310 310 309 309 309 309 308 308 307 307 306 306 305 305 304 303 302 302 302 302 302 301 301 301 300 299 299 299 299 298 299 299 297 296 295 295 296 296 296 296 296 296 296 295 293
320 320 320 320 319 318 319 319 319 319 319 319 318 318 318 317 317 317 317 317 317 317 318 319 319 317 317 316 315 315 315 314 312 311 309 308 308 308 307 307 308 309 309 309 308 308 307 307 307 307 307 306 306 305 305 304 303 302 301 301 301 301 300 300 300 300 300 300 299 298 298 297 297 297 296 295 294 295 295 295 295 295 295 295 294 293 292
319 319 319 319 319 319 320 320 320 320 319 319 319 318 318 318 317 317 317 317 317 318 319 319 318 316 316 315 315 314 313 312 311 309 309 308 308 307 307 307 308 308 308 308 308 307 307 307 306 306 305 305 305 304 304 303 302 301 301 300 299 299 298 298 298 299 299 299 299 298 297 296 296 296 295 294 294 294 294 294 293 293 293 293 293 292 292
318 318 319 319 319 319 319 319 319 319 319 319 319 318 318 317 317 318 318 318 318 318 318 317 316 315 315 314 314 313 312 311 310 309 308 309 309 308 308 307 306 306 306 306 306 306 306 305 305 304 304 304 303 303 302 302 301 301 300 299 298 298 297 297 297 298 298 298 298 297 296 295 295 294 294 293 293 293 293 293 292 292 292 292 292 291 291
318 319 319 319 319 318 318 319 319 319 319 319 318 318 317 317 317 317 318 318 318 318 317 316 316 315 315 314 312 311 311 311 310 309 310 310 309 308 307 307 306 305 305 304 304 304 304 303 303 303 303 302 302 301 301 300 299 299 298 298 297 297 296 297 297 297 296 296 295 295 295 294 294 293 293 293 292 292 292 292 292 292 291 291 291 291 291
317 318 318 318 318 319 319 319 319 318 318 319 319 318 318 317 317 317 317 317 317 317 317 316 316 315 314 313 312 311 311 310 310 310 311 310 309 307 307 307 306 304 304 303 304 304 303 302 302 302 301 301 301 300 300 299 298 297 296 296 296 296 296 296 296 295 295 294 294 294 294 293 293 293 292 292 292 292 292 291 291 291 291 291 291 290 290
317 317 317 317 318 319 319 319 318 317 316 317 318 318 317 317 317 317 316 316 316 316 315 315 315 314 313 312 311 311 310 310 310 310 310 309 309 308 307 306 305 304 304 304 304 304 302 301 301 301 301 300 300 299 299 298 297 296 295 295 295 295 295 295 295 294 294 294 293 293 293 293 292 292 292 292 292 291 291 291 291 291 290 290 290 290 290
317 316 316 316 317 318 318 318 317 316 316 317 318 318 317 316 316 315 315 315 315 314 313 313 312 312 312 311 311 311 310 310 310 310 310 310 309 308 307 306 305 304 304 303 303 302 301 301 300 300 300 299 299 298 298 298 297 296 295 295 294 294 294 294 294 294 294 293 293 293 293 292 292 292 292 291 291 291 291 291 290 290 290 290 290 290 290
316 316 316 316 316 317 317 317 316 316 316 317 318 317 316 315 315 315 315 315 314 313 312 311 310 310 310 310 310 310 310 310 310 310 310 309 308 307 306 305 303 302 301 301 301 300 300 300 299 299 299 298 298 297 297 297 297 296 295 295 294 294 294 294 294 294 294 293 293 293 292 292 292 291 291 291 291 291 291 290 290 290 290 290 290 290 290
316 316 315 315 315 316 316 317 317 316 317 318 318 317 316 316 315 314 314 314 312 311 310 309 309 309 309 309 309 309 308 308 308 308 308 307 307 306 305 304 302 300 300 300 300 300 299 299 298 298 297 297 297 296 296 296 296 296 295 295 294 294 294 294 294 294 293 293 293 292 292 292 291 291 291 291 291 291 291 290 290 290 290 290 290 290 290
314 314 314 314 314 314 315 315 316 317 318 318 318 317 317 316 315 315 314 314 312 310 308 308 308 307 307 307 307 306 306 306 306 305 305 306 307 306 305 303 302 301 300 300 299 298 298 297 297 297 296 296 296 296 295 295 295 295 295 294 294 294 294 294 294 293 293 293 293 292 292 292 292 291 291 291 291 291 291 291 290 290 290 290 290 290 290
Wind_Speed
3 5 4 3 3 3 3 4 3 5 3 6 7 6 6 7 6 8 8 8 8 9 8 11 12 11 11 11 10 8 7 8 8 8 8 8 8 7 7 7 7 8 8 7 9 12 13 13 13 12 10 10 9 8 6 5 5 6 6 8 10 11 12 12 12 11 10 11 12 13 15 16 16 17 16 16 16 17 17 16 16 18 20 23 24 24 25
1 4 5 2 3 2 1 3 5 6 5 6 7 7 7 9 8 9 6 7 9 9 6 8 8 6 5 5 6 7 8 9 9 9 9 9 9 9 9 8 8 8 8 8 10 12 13 14 15 14 13 12 11 8 5 4 5 6 7 9 10 11 12 12 12 11 11 11 11 12 14 15 16 17 17 16 15 16 17 16 16 17 19 21 23 23 23
3 4 1 2 3 3 2 4 4 4 5 5 4 3 4 5 6 8 4 4 8 7 4 4 5 7 8 7 8 9 10 10 10 10 10 10 9 9 8 8 8 8 7 7 9 11 13 16 17 16 14 12 10 8 6 5 6 7 8 10 10 11 12 12 12 12 11 11 11 12 13 15 16 17 17 17 16 16 16 16 17 19 20 20 21 22 22
5 4 2 2 2 3 1 7 7 5 4 4 3 3 3 5 5 4 2 3 7 6 2 2 4 9 12 12 12 10 9 10 12 12 11 10 9 9 8 8 8 8 7 7 9 12 16 19 19 17 13 11 10 9 8 7 7 7 9 10 10 11 11 12 11 11 11 11 12 13 14 16 17 17 17 18 17 17 16 15 17 18 18 18 19 20 20
4 5 1 2 4 4 4 7 5 4 4 4 4 4 4 6 6 5 4 6 6 4 5 6 5 8 10 12 13 12 11 12 11 12 11 10 10 9 9 9 9 8 8 9 13 17 19 21 20 16 12 10 10 9 9 9 8 9 9 9 10 11 11 11 11 11 11 12 13 14 16 18 19 18 18 18 17 17 16 16 16 15 14 14 16 18 18
4 6 2 3 3 2 6 6 6 5 4 5 6 7 7 6 5 4 4 5 4 6 7 9 11 11 12 13 13 12 11 11 10 10 10 9 9 9 8 9 8 8 10 13 17 20 21 21 18 14 11 10 9 9 10 11 11 11 11 10 10 11 12 12 13 12 12 13 14 16 19 20 19 18 18 17 16 15 16 17 17 15 13 12 13 15 16
3 2 2 1 4 7 7 6 4 6 7 6 6 8 8 6 5 4 3 4 6 8 8 8 11 11 9 9 10 9 9 10 11 10 9 9 9 9 8 8 8 9 12 15 18 21 22 20 17 15 13 11 10 10 11 12 13 13 13 12 12 12 13 13 13 13 14 15 16 18 20 19 16 15 16 16 15 14 16 17 18 18 14 11 11 12 13
2 1 2 3 6 7 6 8 6 5 4 2 2 6 7 6 5 5 5 6 6 6 4 3 4 5 5 4 4 5 6 8 9 10 10 10 10 10 10 11 11 14 18 20 22 24 23 20 18 17 15 13 13 13 12 13 15 15 15 15 15 14 14 14 14 14 15 17 18 20 19 16 13 13 14 15 14 14 15 17 17 18 14 9 9 10 11
2 3 3 3 4 6 6 6 5 3 3 3 2 3 6 6 4 6 5 6 5 3 1 2 4 6 7 3 3 4 5 7 8 8 9 10 11 11 12 14 17 21 24 25 26 25 22 19 19 18 16 14 14 14 14 15 16 16 16 16 16 16 15 14 14 13 14 16 19 20 17 13 12 13 13 15 15 15 16 17 16 15 12 9 8 10 10
2 3 1 2 3 5 6 8 7 4 4 5 5 4 5 7 4 6 7 7 7 5 3 4 5 6 7 3 6 5 5 7 6 6 6 8 11 11 12 14 17 21 25 26 26 24 21 19 19 18 16 15 15 15 16 17 17 16 17 16 16 15 14 13 12 12 13 15 18 18 15 12 12 13 14 15 16 16 16 16 14 12 11 9 9 10 10
2 4 3 3 4 6 7 10 10 6 3 5 6 2 5 7 5 6 8 8 7 7 7 7 7 6 5 5 6 5 6 7 7 7 6 6 8 10 13 16 19 23 27 27 24 21 20 19 19 18 16 15 15 16 18 18 17 17 17 16 14 14 13 13 13 12 13 14 15 15 13 12 12 14 15 16 17 16 15 13 11 11 11 10 10 11 11
3 5 4 3 4 5 7 8 8 5 4 7 5 3 7 6 5 5 9 8 7 7 7 6 7 7 6 6 6 6 6 6 7 8 7 7 9 12 15 19 21 24 25 23 20 20 21 20 18 17 16 15 15 17 18 18 18 19 19 17 14 13 13 14 13 12 12 13 12 12 12 12 12 13 14 14 15 15 12 10 10 10 11 11 12 13 13
5 5 4 3 3 6 7 7 7 5 3 5 1 7 7 5 5 5 8 8 7 8 8 6 5 6 6 5 4 4 5 6 6 8 10 12 14 16 19 21 21 20 21 21 22 22 22 20 18 17 16 15 17 18 18 18 19 19 19 17 15 13 13 13 13 12 12 11 10 11 12 12 11 11 11 12 14 13 11 10 11 11 10 10 11 13 14
3 4 3 3 4 6 6 4 2 2 4 2 6 7 4 4 6 6 7 8 7 8 9 7 6 5 5 3 3 4 7 8 7 7 9 11 13 15 17 19 19 19 20 20 22 22 21 21 19 17 15 16 17 17 17 18 18 17 16 16 15 14 13 13 13 12 10 9 9 10 12 10 8 8 9 11 13 13 13 13 14 12 10 10 10 13 14
2 1 2 3 5 7 7 6 3 1 4 5 5 3 1 2 6 7 7 8 8 8 8 7 5 4 4 4 4 5 7 7 7 8 10 12 14 15 16 18 20 21 21 21 23 23 22 21 20 17 15 16 17 16 17 17 15 14 13 14 14 14 13 14 13 11 9 9 8 8 9 8 6 7 10 12 13 14 14 15 15 13 12 11 12 12 14
3 3 4 5 5 7 7 8 5 5 6 6 6 7 4 2 4 5 6 7 7 8 9 7 5 5 5 5 5 6 6 6 6 7 10 13 14 16 18 21 23 23 22 22 23 23 22 21 19 17 17 17 17 16 16 15 13 12 12 12 13 13 13 13 11 9 9 9 7 5 6 6 6 8 10 11 12 13 14 15 15 14 13 13 14 14 13
4 5 6 6 4 3 2 3 4 5 5 5 7 9 6 4 4 4 5 7 7 7 7 7 5 5 5 5 6 6 6 6 7 7 11 15 17 18 20 22 23 23 22 21 22 22 20 18 17 17 17 17 17 16 15 14 13 12 12 13 13 12 12 11 8 8 8 7 5 3 5 6 7 9 9 9 10 12 14 16 17 17 16 15 15 15 14
3 3 3 3 3 4 4 3 1 2 5 5 4 6 5 4 4 4 5 6 6 5 6 6 5 5 6 5 5 5 5 5 6 7 10 14 16 17 18 20 21 21 20 19 18 17 17 16 16 16 16 17 17 17 15 14 13 12 13 14 13 12 12 10 7 6 6 5 4 4 5 5 6 8 8 7 9 11 13 16 18 18 17 16 16 16 16
2 2 4 6 4 4 3 3 4 5 6 4 3 5 4 4 4 4 4 5 5 4 5 6 5 5 5 4 4 5 4 6 7 7 8 11 15 17 19 20 20 19 17 15 15 16 17 18 16 16 17 17 17 17 15 13 12 12 14 14 12 11 12 10 6 5 6 6 5 5 5 5 7 7 7 7 9 11 12 14 16 17 17 17 16 16 16
2 2 6 6 3 3 3 3 5 5 6 5 5 5 6 6 6 5 4 5 6 4 3 5 5 2 2 3 4 4 5 6 6 6 9 13 16 18 19 17 16 16 16 16 17 17 19 19 17 15 15 15 14 14 12 10 10 11 13 14 11 11 12 10 7 6 7 7 6 6 5 6 7 7 7 8 10 10 10 12 13 14 15 15 14 14 14
2 2 5 4 4 7 6 4 5 5 6 7 7 6 7 8 7 6 6 4 4 4 4 5 5 4 2 3 4 4 4 5 5 7 11 14 16 18 17 15 15 17 18 18 17 18 20 20 17 14 13 12 10 10 10 9 9 11 12 11 9 11 12 11 8 7 8 9 8 8 6 7 8 7 7 9 10 9 9 10 11 13 14 14 14 14 13
0 3 5 2 3 1 2 2 6 6 6 8 8 6 7 7 7 7 7 5 4 4 3 3 5 6 2 2 1 3 4 5 6 8 9 10 11 12 12 12 13 14 15 15 15 18 19 18 15 14 13 11 9 9 9 9 9 10 10 9 8 9 12 12 9 8 9 11 11 9 7 8 9 7 6 8 9 9 8 8 10 11 13 14 14 14 14
4 6 7 5 5 4 5 6 5 5 5 8 9 7 7 7 6 7 8 6 5 5 4 3 6 6 3 1 2 3 4 6 6 6 5 5 6 6 6 7 7 9 11 12 13 15 17 16 14 14 13 11 10 10 9 9 9 10 11 11 11 11 12 13 11 10 10 12 13 11 8 9 9 7 6 7 8 8 7 7 7 10 12 14 15 15 15
4 6 7 6 5 4 6 7 6 6 5 6 8 7 7 7 6 6 8 8 6 5 3 2 4 5 3 2 3 4 4 4 4 3 2 3 3 3 4 5 7 8 10 11 12 14 15 14 13 13 12 12 11 10 10 11 11 11 11 12 12 12 12 13 12 11 11 12 14 13 10 10 8 6 6 8 8 8 7 6 6 8 11 15 17 18 17
4 4 4 6 4 4 4 3 2 4 5 5 7 7 7 8 8 7 8 7 7 8 7 4 3 5 5 4 4 4 3 2 2 3 3 3 3 4 5 7 9 10 11 11 12 13 13 13 13 14 14 14 14 13 13 13 14 14 14 14 14 14 14 14 13 13 12 13 14 13 11 8 5 4 6 8 7 6 7 6 6 7 11 13 15 16 17
3 3 5 5 2 2 4 3 0 5 7 6 7 7 7 9 10 10 10 10 10 10 10 8 7 8 7 5 4 4 4 4 4 4 4 4 5 7 9 10 11 11 10 11 11 11 12 13 12 12 13 14 13 13 15 15 15 16 16 14 14 14 15 15 15 14 13 12 12 9 6 3 3 4 6 6 5 5 7 9 9 10 12 14 15 15 16
2 5 6 6 3 1 3 5 5 6 6 5 6 6 6 8 10 10 9 9 9 10 11 10 10 9 6 4 4 4 5 6 6 6 7 8 9 10 10 11 10 9 8 9 9 9 9 8 5 6 8 8 7 9 11 14 15 17 18 17 16 17 17 17 17 14 11 8 5 2 2 4 5 6 7 8 8 9 11 12 13 14 15 17 17 18 18
2 4 4 4 5 8 8 6 3 3 2 2 5 6 6 7 8 8 7 7 6 7 7 8 8 7 5 4 5 5 4 5 5 7 9 12 12 11 10 9 8 7 7 8 7 6 3 1 2 2 2 4 5 5 8 12 15 17 18 18 18 18 18 17 14 10 6 3 2 3 5 6 7 8 10 11 12 13 14 15 15 16 17 18 18 18 19
6 7 4 2 4 7 6 5 5 6 5 5 6 7 6 7 7 6 5 4 4 4 4 3 3 3 3 5 6 6 5 5 6 8 10 11 10 9 8 7 7 8 8 7 4 3 3 3 3 2 2 3 5 5 6 10 13 14 13 11 12 15 16 13 8 5 5 6 6 7 8 8 9 10 12 13 13 15 16 16 15 16 17 19 19 20 20
7 6 3 2 4 8 10 8 7 6 6 6 6 6 5 7 8 5 4 4 3 3 2 1 0 0 1 4 6 6 6 6 7 9 9 9 9 8 8 7 7 6 5 3 3 3 3 1 1 0 1 1 4 6 6 5 6 10 11 6 6 9 10 5 4 9 9 10 10 10 10 11 11 12 14 14 14 15 16 16 15 15 15 17 20 21 21
4 3 6 7 7 8 9 8 7 6 6 7 8 6 6 8 8 6 4 4 4 3 3 3 3 2 2 3 5 5 6 6 5 4 4 4 5 6 6 6 6 5 5 5 3 2 2 3 3 2 1 1 1 3 4 2 4 7 6 1 4 2 1 3 8 11 11 11 12 12 13 13 14 14 14 15 14 15 15 15 15 15 15 17 19 20 20
2 3 5 6 7 8 8 7 7 7 6 7 8 8 7 7 8 7 6 5 5 5 5 4 3 2 2 1 3 4 4 4 2 2 2 2 0 2 3 5 6 6 6 4 2 3 4 5 5 4 2 2 3 4 5 4 3 2 2 4 6 8 9 10 12 12 12 13 14 14 14 15 15 15 14 14 14 14 13 13 13 13 14 16 18 19 19
7 4 4 5 6 7 7 6 7 8 7 6 7 7 6 6 6 6 5 5 6 5 5 5 4 3 4 4 6 7 7 7 6 6 7 7 8 7 7 8 8 8 7 6 5 4 4 3 3 3 2 0 2 4 6 7 4 3 6 8 11 13 14 15 14 14 15 15 15 14 13 13 14 13 12 12 12 12 12 12 11 12 13 14 16 19 18
11 11 12 13 12 12 11 9 7 7 6 5 5 5 5 6 6 6 7 7 6 5 6 8 8 8 8 9 9 9 9 7 5 5 7 9 10 11 11 11 10 11 12 12 10 9 7 4 1 0 1 2 3 5 6 6 7 10 13 15 17 18 17 16 15 15 15 14 13 13 13 11 11 11 11 11 11 11 11 11 11 11 12 13 14 16 18
10 8 10 12 10 11 12 11 10 9 9 7 6 5 6 7 8 8 8 8 7 8 10 11 12 12 12 11 10 9 8 7 6 6 8 9 10 11 13 13 13 14 15 15 14 13 11 8 4 1 1 1 1 2 5 10 15 18 18 18 19 20 18 17 16 15 14 13 12 12 12 10 10 10 10 11 11 11 11 11 11 11 12 12 11 13 17
7 5 6 6 6 8 10 9 9 9 9 8 7 6 6 8 10 10 10 10 11 12 13 13 13 13 12 10 9 8 7 7 7 7 8 10 11 12 14 14 13 14 14 14 13 11 9 7 5 4 4 6 9 12 16 19 21 20 19 19 20 20 19 18 18 17 16 14 13 12 10 10 10 10 10 10 11 11 10 10 10 10 11 11 11 11 15
8 8 7 7 7 8 8 9 10 10 9 8 8 8 8 9 11 12 12 13 13 12 12 12 13 12 11 10 10 9 8 7 7 8 10 12 14 15 15 14 13 13 13 11 10 8 6 5 6 8 10 12 14 15 17 20 22 22 20 20 21 21 20 20 19 18 17 17 16 15 14 14 13 12 11 11 11 10 10 10 10 10 10 11 11 11 13
9 10 10 11 11 10 9 10 13 14 12 9 8 10 12 14 14 14 14 13 13 12 12 12 13 13 13 12 12 11 10 9 10 12 14 15 16 16 15 13 13 12 11 9 7 6 6 7 10 13 14 15 15 15 16 19 21 21 21 21 21 21 20 20 20 20 19 19 18 18 18 19 18 17 16 14 12 11 11 11 11 11 12 12 13 13 14
9 10 13 14 13 12 11 12 13 14 14 12 10 10 13 16 16 15 14 13 12 12 12 13 13 13 13 12 11 11 11 11 14 16 17 18 18 18 16 14 12 11 9 8 8 8 9 11 14 15 16 16 16 16 17 18 18 19 20 20 20 20 20 19 19 19 19 18 18 19 20 20 19 19 18 18 17 16 15 13 14 15 15 15 16 16 17
9 9 10 12 11 11 11 10 10 12 15 16 14 13 15 16 15 14 14 12 11 11 12 13 12 11 11 11 10 11 11 14 17 19 19 19 18 17 15 13 12 10 9 9 11 12 12 14 15 16 16 15 16 16 16 17 17 18 18 18 19 19 19 19 19 18 18 17 18 18 18 18 18 19 19 19 19 18 17 16 16 16 17 17 17 17 17
11 11 11 10 10 10 10 10 11 11 13 14 15 16 16 16 15 14 13 12 11 11 12 13 12 12 12 13 13 13 14 15 16 18 18 18 17 14 10 8 8 9 10 11 13 14 14 14 15 16 16 15 15 16 16 16 16 17 18 18 19 19 19 19 19 19 19 19 18 18 17 16 17 17 18 18 17 16 15 15 15 15 15 16 16 16 17
4 8 9 8 8 10 11 11 11 11 10 11 13 14 13 13 13 13 13 13 13 13 12 12 12 14 15 16 15 15 15 15 15 15 16 16 15 13 10 8 8 10 12 13 13 14 14 13 14 14 14 14 15 15 15 15 16 17 18 18 18 18 18 19 19 18 18 18 18 16 16 15 15 15 16 16 17 17 16 16 16 16 16 16 16 16 16
5 4 8 7 7 9 12 12 11 11 9 10 11 12 11 11 13 14 14 14 14 14 13 13 13 14 15 16 16 15 15 16 16 16 15 14 13 14 13 11 10 10 12 14 15 15 14 14 13 12 12 13 13 13 13 14 15 16 17 17 17 18 18 17 17 17 16 16 16 15 14 14 14 14 14 15 16 16 17 17 17 16 16 16 15 14 14
6 1 8 9 8 10 12 12 11 10 9 9 10 12 12 13 14 15 15 15 14 14 15 15 15 15 15 16 15 15 15 16 18 18 16 13 11 12 13 12 11 11 13 14 14 14 14 14 13 12 11 12 11 11 11 12 12 13 14 15 15 15 15 15 15 15 15 14 14 14 13 13 13 13 14 14 14 15 15 15 15 15 14 13 12 12 12
6 3 9 12 11 11 11 11 10 10 11 12 12 12 13 14 14 15 15 16 15 15 15 15 15 16 16 15 14 15 16 18 19 20 17 11 8 9 10 10 11 13 13 12 12 12 12 12 11 11 11 11 10 10 10 11 10 11 11 12 12 12 13 13 14 14 15 14 14 13 13 13 14 14 13 13 14 13 13 13 13 12 11 11 10 10 10
6 6 11 12 10 10 11 12 14 16 16 14 11 10 11 14 14 14 14 15 15 15 15 15 16 17 17 17 16 16 15 14 14 14 14 12 11 12 12 11 12 13 12 11 11 12 11 11 10 10 10 9 9 9 9 9 9 10 10 10 10 11 13 14 15 15 15 14 14 14 13 13 13 13 13 13 13 12 12 11 10 10 9 9 9 8 8
6 7 9 9 9 10 12 14 16 15 13 10 7 7 10 13 13 12 12 14 14 14 14 15 16 17 18 20 20 20 18 14 10 8 10 12 14 15 14 12 12 12 12 12 11 11 10 10 10 9 9 8 8 8 8 9 9 10 10 10 10 12 14 15 15 14 14 14 14 13 12 12 12 11 11 11 11 10 10 9 8 8 7 7 7 7 7
8 8 8 8 10 11 13 14 13 10 8 8 8 10 11 12 12 12 12 13 13 13 13 13 14 16 18 19 20 20 19 16 12 9 11 15 16 16 14 13 13 13 14 13 12 11 10 9 9 8 7 7 7 7 8 8 9 10 11 11 11 12 13 14 13 13 13 12 12 11 11 10 10 9 9 8 8 8 7 7 7 6 6 5 5 5 5
9 9 8 9 9 10 11 10 8 6 7 10 12 12 13 13 13 13 13 15 15 14 14 13 13 14 16 16 17 18 17 14 11 13 16 18 17 16 15 14 14 14 14 14 14 12 10 9 8 8 7 6 6 6 7 8 9 9 9 10 10 11 11 11 11 11 10 10 10 9 9 9 9 8 7 7 6 6 6 6 5 5 4 3 3 3 3
9 10 8 7 7 8 8 7 7 8 11 13 13 14 15 14 13 12 14 16 16 15 14 13 12 12 13 14 15 15 14 11 12 16 19 18 17 16 16 14 14 14 14 14 14 12 10 9 8 7 7 6 6 6 7 8 9 9 9 9 9 10 10 9 9 9 9 8 9 8 8 8 8 7 7 6 6 5 4 4 3 2 2 2 2 2 3
9 9 9 8 7 6 3 3 5 9 12 13 15 16 16 15 13 13 16 18 17 16 14 13 11 11 13 14 14 14 13 12 13 16 17 16 16 16 14 13 13 14 14 13 13 12 9 8 7 6 6 7 7 6 7 8 9 9 9 9 9 9 9 9 9 8 8 7 7 7 7 7 6 6 6 5 5 4 3 2 1 1 2 3 3 4 4
11 11 12 11 10 8 6 4 4 8 12 14 15 16 16 15 15 14 15 16 17 16 15 13 11 10 12 14 13 12 12 13 14 14 14 15 15 16 14 13 14 14 14 13 12 11 9 8 7 6 7 8 8 8 8 8 9 10 10 10 10 9 9 8 8 7 7 7 6 6 5 5 5 4 4 3 3 2 1 1 2 3 4 5 5 6 7
Wind_Direction
234 200 218 213 165 176 188 183 237 270 213 170 184 208 200 159 166 244 240 182 199 242 234 216 209 193 190 191 180 171 163 165 174 177 182 192 200 205 202 195 185 177 181 189 183 183 187 192 198 203 208 220 229 238 260 280 275 268 272 282 298 306 307 314 319 320 326 329 327 325 324 324 329 334 337 340 345 349 345 337 331 326 323 324 323 324 325
278 248 258 223 125 114 258 219 222 245 248 217 209 215 198 183 208 240 222 192 223 243 233 224 210 170 155 149 137 149 164 170 175 177 185 196 201 203 199 194 189 185 187 185 182 185 190 194 200 204 209 217 224 232 249 268 264 260 267 278 290 298 304 311 313 312 318 324 327 327 325 325 326 328 331 336 341 346 346 340 335 329 323 321 323 324 325
284 288 302 102 114 134 221 273 264 264 285 282 256 233 189 186 241 262 242 218 253 257 227 211 182 135 126 139 159 173 178 175 175 181 191 197 197 198 196 189 188 190 188 181 182 190 196 201 205 206 210 218 223 231 248 256 259 261 267 278 286 292 299 305 304 304 310 316 322 327 328 329 328 326 328 331 333 337 339 337 332 326 321 319 321 323 324
264 295 55 102 92 99 308 295 287 276 281 281 272 246 190 186 222 249 215 217 255 255 192 147 162 155 154 165 174 175 180 182 181 185 192 194 191 190 190 189 189 189 185 183 191 199 203 206 207 208 211 218 224 236 249 252 257 260 263 274 282 287 297 301 299 301 305 308 316 324 330 333 332 329 329 331 333 332 331 328 322 319 319 319 319 322 323
258 292 355 78 49 31 318 279 240 214 230 256 285 286 242 208 176 164 200 227 234 209 149 136 161 172 172 177 177 177 185 188 188 190 190 190 190 189 188 191 190 187 191 195 200 204 207 208 207 208 212 217 228 242 248 248 255 258 261 271 278 285 297 301 299 302 306 309 316 323 329 331 330 330 330 332 334 332 329 328 322 319 318 316 317 322 322
250 279 310 40 29 302 257 241 192 183 231 254 265 275 267 244 190 175 232 239 190 167 163 162 174 185 189 186 183 181 179 179 186 196 193 188 190 191 193 195 191 189 196 202 206 209 211 210 208 208 213 219 232 245 247 248 254 257 261 269 276 285 297 301 301 305 310 316 321 326 329 330 330 331 332 332 334 333 334 335 332 328 320 310 316 324 323
199 270 27 12 251 235 243 262 234 213 220 221 236 262 268 252 216 192 218 218 180 178 188 180 178 186 184 175 178 181 178 176 179 186 193 195 191 192 198 198 195 195 197 201 209 214 215 213 208 208 213 220 231 241 246 252 256 257 261 267 273 283 295 302 305 309 316 322 327 330 331 331 333 335 334 333 334 335 339 341 339 337 328 309 311 324 327
154 117 124 203 243 258 282 296 282 242 224 207 289 293 283 252 211 183 199 220 204 193 207 179 149 145 119 120 173 191 185 183 178 178 189 195 192 195 199 194 193 197 199 202 208 213 215 212 209 211 216 220 227 238 247 255 258 260 262 266 271 280 291 302 308 313 321 327 331 334 334 331 333 336 334 334 336 338 342 345 345 344 336 313 302 316 328
155 154 193 243 290 304 299 284 274 256 225 200 174 264 277 263 209 177 187 206 198 187 186 110 111 104 95 104 246 237 201 199 199 196 197 195 196 201 201 198 199 201 203 206 210 213 214 212 212 216 220 222 227 238 248 254 259 263 264 265 270 277 287 301 310 315 320 325 329 332 332 330 332 332 330 333 337 339 341 345 351 351 343 322 297 302 319
116 123 225 292 284 276 260 245 253 258 222 190 147 155 267 276 229 181 175 181 177 160 134 133 128 105 105 162 242 240 206 205 215 227 229 212 203 200 194 197 204 205 206 210 213 215 214 216 218 221 225 228 231 238 247 253 258 263 265 267 272 277 285 296 306 310 315 321 325 328 329 330 333 331 328 331 337 338 340 346 353 355 350 337 311 297 307
108 135 201 227 217 241 241 235 254 268 195 137 95 79 276 273 236 175 161 174 180 162 155 157 143 125 147 211 243 236 210 206 206 212 227 220 203 199 197 200 204 205 207 211 215 216 217 221 224 225 228 231 233 240 250 255 257 262 266 270 274 278 284 292 297 303 312 319 323 328 331 331 332 333 333 336 340 342 345 350 353 354 355 348 331 312 305
176 167 206 233 224 248 243 229 245 254 153 112 78 305 271 258 233 179 158 172 181 161 157 160 148 150 179 212 238 234 208 195 189 191 200 197 189 195 202 205 206 206 207 210 211 212 217 223 227 226 228 230 233 242 251 255 257 262 267 270 273 277 285 291 294 301 313 318 322 333 339 335 334 338 340 345 348 347 349 352 351 351 355 352 344 334 318
196 188 217 257 250 244 241 229 229 221 124 93 178 241 238 218 210 182 153 161 170 156 154 163 173 189 200 207 233 226 177 160 167 183 193 197 196 198 202 204 205 207 208 210 210 212 218 225 229 227 225 228 235 242 249 253 257 265 271 272 273 279 287 290 291 299 309 312 318 333 338 333 333 341 347 352 354 352 349 346 344 345 349 349 348 347 337
188 185 210 273 282 245 214 192 207 171 125 166 225 224 209 171 170 160 148 156 165 164 166 178 198 216 217 211 220 190 168 167 174 180 186 195 203 206 206 206 207 207 208 210 212 216 224 229 230 227 225 229 236 241 245 251 261 273 280 277 274 277 282 283 285 295 305 306 312 324 328 329 333 344 351 353 355 355 350 343 339 335 336 340 342 346 347
151 156 200 245 270 241 187 142 107 153 178 205 207 174 127 155 149 142 150 163 169 170 176 196 215 204 183 190 201 191 181 182 184 185 188 195 202 204 203 205 208 207 207 208 211 218 227 231 230 227 226 230 234 239 246 257 269 279 284 284 280 276 275 278 283 293 300 301 305 316 325 331 336 343 347 350 355 358 356 352 345 335 329 332 334 336 342
144 163 210 219 235 230 187 155 169 202 196 191 163 139 144 205 169 151 158 175 184 181 177 189 202 185 177 193 198 194 197 200 197 197 198 198 202 204 203 205 208 207 206 207 211 220 229 231 228 229 229 230 233 241 254 266 275 280 289 294 287 277 273 274 278 291 298 294 292 307 328 334 334 337 341 347 355 1 2 3 360 351 341 333 330 329 333
171 178 219 237 250 256 208 173 207 196 161 151 148 140 145 186 196 174 165 176 191 187 167 159 166 181 199 210 203 195 204 208 199 197 200 202 204 206 207 207 207 206 205 207 213 223 229 228 228 230 230 230 235 246 261 273 276 282 297 299 285 272 264 258 264 288 294 279 263 292 328 332 333 339 343 350 359 1 3 6 5 2 357 347 338 333 328
244 222 259 298 322 332 353 3 305 137 116 118 126 123 135 176 188 173 165 170 177 176 157 146 164 198 202 202 212 218 219 219 212 207 208 210 209 208 208 207 206 205 206 210 217 226 230 228 228 231 232 235 243 252 265 277 281 284 294 295 283 265 248 239 252 282 277 251 243 284 318 322 332 346 351 355 360 360 3 8 6 4 3 359 352 345 336
241 257 324 341 339 320 339 33 60 68 74 81 98 111 129 157 156 148 146 139 137 144 146 142 164 208 198 183 206 221 215 217 218 213 214 216 214 211 209 208 204 201 203 211 219 228 231 228 226 229 235 243 251 258 269 281 284 284 290 291 279 252 228 222 238 257 246 238 250 275 299 313 329 346 352 351 355 359 4 9 8 5 5 3 357 349 341
116 233 286 307 336 354 8 66 92 90 90 89 84 98 112 110 107 109 105 108 114 120 135 142 146 172 213 214 213 211 216 223 219 215 217 218 217 216 215 211 204 200 205 213 220 226 229 227 224 230 242 252 257 261 268 276 275 281 293 289 264 229 212 214 229 238 234 240 254 265 283 309 323 337 350 355 357 1 9 13 12 8 6 3 358 348 339
51 280 272 297 24 23 15 53 103 121 123 110 94 92 101 101 99 92 74 69 102 131 152 161 143 131 178 230 214 200 217 229 225 223 222 218 217 217 216 212 208 207 212 218 222 226 230 228 229 244 261 265 261 263 266 264 264 279 292 282 246 216 209 217 230 235 236 243 250 254 272 308 319 325 347 3 4 7 18 25 22 15 9 7 4 356 349
311 232 231 211 97 67 268 170 142 149 142 121 113 113 112 115 123 117 96 65 52 77 100 120 121 125 163 256 191 188 221 233 232 234 234 230 228 226 223 222 221 221 226 230 231 232 234 235 242 260 269 263 260 270 268 254 255 274 284 277 257 234 224 227 238 244 243 246 249 250 268 303 315 320 343 4 12 21 28 29 26 20 16 15 13 7 4
226 227 216 186 139 161 222 218 188 180 155 127 129 142 143 144 149 135 121 110 86 66 54 75 121 142 175 198 160 193 237 245 239 237 239 242 245 249 248 243 240 242 244 243 241 241 243 247 256 268 272 267 267 274 270 256 258 271 274 270 266 253 239 239 249 254 252 251 251 252 269 297 308 319 341 357 14 33 42 37 31 29 29 31 31 26 19
237 243 214 183 157 171 199 207 205 203 176 139 139 154 157 154 155 145 137 139 138 128 109 80 120 143 158 176 193 220 253 260 243 226 217 219 230 249 253 244 244 250 249 244 245 248 252 262 274 280 281 278 279 283 278 266 263 266 265 261 259 255 251 251 252 254 256 257 254 255 272 294 305 325 352 356 7 34 52 54 44 40 40 40 39 37 33
226 228 183 173 185 180 161 164 209 220 197 156 146 162 168 158 157 157 151 150 155 152 146 145 159 164 164 172 188 203 216 212 184 176 174 180 206 237 250 248 250 253 253 250 251 256 266 279 288 291 293 299 309 316 309 294 279 269 263 260 259 259 259 254 248 247 252 257 257 264 280 299 316 358 11 5 4 22 47 64 66 54 45 38 36 35 35
204 141 108 104 102 90 92 88 151 228 216 180 150 163 176 163 158 161 157 158 165 162 156 161 175 178 175 164 157 164 162 154 167 186 188 199 229 245 254 260 263 264 266 268 272 281 291 296 300 313 328 336 334 326 320 315 302 282 268 261 259 261 261 256 252 252 254 257 264 276 298 340 35 38 35 38 42 45 53 63 63 52 42 38 35 32 32
163 134 111 89 71 240 214 200 196 206 212 183 142 145 155 146 141 139 134 137 149 154 155 160 161 158 156 142 132 146 161 165 178 196 204 216 234 243 252 265 274 275 276 284 294 301 306 310 326 2 11 360 331 308 314 322 313 294 280 273 268 266 264 261 259 259 257 257 266 289 60 82 76 66 67 76 82 79 74 68 58 45 38 37 37 35 35
258 202 172 147 180 207 215 214 184 131 113 114 121 123 117 104 98 98 101 108 118 129 138 145 144 140 142 144 140 147 166 182 202 215 218 227 238 246 252 264 272 271 273 284 293 295 294 12 64 54 12 334 314 306 324 337 331 313 295 286 284 280 272 263 258 253 242 222 168 122 110 98 89 86 87 88 89 86 78 69 59 49 38 32 34 40 46
246 241 245 226 188 169 144 125 112 100 94 100 106 107 107 97 84 80 93 111 122 125 126 134 140 139 154 167 165 164 174 200 230 240 242 250 260 262 262 265 269 270 270 268 257 214 160 116 66 43 17 359 350 331 333 354 357 344 327 321 323 317 301 277 245 203 170 148 131 120 111 101 94 91 90 89 87 82 73 65 60 54 42 33 32 35 39
240 228 206 170 148 135 128 130 133 126 122 119 106 95 104 108 100 90 89 95 101 109 111 122 136 99 183 199 200 201 206 224 246 254 258 271 277 267 259 262 265 263 253 219 190 181 177 157 64 183 221 357 351 331 325 342 337 323 327 353 13 343 323 299 166 140 129 122 117 113 106 99 93 90 88 86 81 76 72 65 60 57 49 41 36 29 26
251 200 161 152 145 138 136 136 134 131 133 129 120 114 111 110 112 118 116 101 96 94 82 73 59 17 325 243 223 228 235 243 259 268 271 279 276 261 255 252 239 210 173 159 165 165 119 100 88 77 258 243 270 302 311 299 265 280 294 32 122 136 221 147 135 128 121 113 109 103 97 92 89 86 85 81 75 72 69 64 60 58 53 47 40 31 26
137 115 132 138 132 128 132 140 141 145 150 143 136 138 140 133 133 141 143 134 129 123 105 88 71 20 356 304 206 215 215 201 171 131 116 110 156 227 216 204 188 168 145 133 113 66 58 60 54 39 6 252 218 237 261 263 250 244 206 145 136 136 136 131 126 120 114 107 100 93 88 84 81 80 78 75 71 68 64 61 59 57 55 52 44 36 33
139 126 133 145 136 135 153 170 161 152 155 152 144 144 145 137 131 133 137 136 129 124 122 120 118 105 97 116 149 160 149 131 119 111 108 104 102 109 127 139 135 115 92 72 55 44 39 33 35 36 26 321 212 234 249 248 229 176 157 151 142 134 130 126 119 110 101 94 88 86 83 79 75 72 70 67 65 63 61 60 58 55 56 55 47 41 41
180 181 179 178 170 164 170 177 167 152 147 137 132 134 132 126 124 127 133 133 129 135 142 135 123 114 111 114 128 136 131 123 116 112 112 113 114 116 120 118 107 91 78 70 65 62 58 53 56 268 323 301 273 268 259 229 184 160 151 143 134 127 122 117 111 102 93 86 84 83 81 76 71 66 63 62 60 60 60 60 58 56 57 56 48 42 45
209 196 182 180 174 163 161 160 155 151 145 136 138 146 140 136 138 140 142 145 147 146 141 129 117 112 110 109 112 116 120 127 133 128 122 124 126 125 120 112 99 88 78 70 66 64 59 53 54 67 314 301 253 183 165 158 152 147 140 130 123 118 115 109 103 96 91 89 87 81 75 72 71 68 66 64 61 58 58 57 57 57 58 58 53 46 46
202 171 153 154 145 136 138 141 144 145 142 140 145 147 143 144 146 145 147 148 144 137 131 123 114 107 101 97 98 101 108 123 130 127 125 127 126 120 112 103 93 84 73 60 54 58 61 59 70 99 118 118 116 122 132 138 139 136 131 124 118 114 111 106 100 95 92 90 87 82 77 77 75 70 68 67 64 61 60 58 57 57 57 56 55 52 48
175 161 149 137 128 126 130 137 142 140 137 140 146 146 148 152 153 151 149 145 140 136 131 123 113 104 97 94 93 89 90 99 105 106 114 121 118 108 97 86 78 73 65 50 43 50 63 81 109 121 120 115 112 114 122 129 131 129 127 123 117 112 108 103 98 94 92 90 88 87 85 84 82 77 74 74 71 68 67 65 63 62 59 54 53 51 48
143 136 129 124 125 126 129 139 144 142 138 138 146 151 153 154 154 150 145 140 137 137 130 120 112 107 102 97 91 85 86 96 103 104 107 111 108 96 81 68 64 64 58 47 45 58 83 109 119 117 113 110 110 111 116 122 125 124 121 118 115 110 107 103 99 97 95 93 92 89 87 85 85 83 81 80 78 76 74 72 70 68 65 61 57 56 55
120 120 121 121 123 127 132 140 147 147 144 141 143 147 150 151 148 141 135 133 137 138 131 121 114 110 104 98 93 90 96 108 113 111 108 107 104 94 82 74 73 72 66 64 72 86 108 123 121 114 110 109 109 110 113 118 120 119 116 115 112 109 107 105 103 102 100 97 95 92 90 88 87 86 83 82 80 79 78 78 76 74 72 70 67 63 62
119 118 122 123 125 132 137 139 144 149 147 145 145 148 151 149 142 132 128 131 139 141 135 127 118 110 107 107 105 104 110 119 122 121 117 111 104 96 87 80 78 77 78 84 91 99 112 120 117 112 111 111 111 112 114 115 115 114 112 112 110 109 109 109 109 108 108 105 102 99 96 93 90 87 83 81 80 79 78 78 77 74 73 74 74 70 68
132 132 132 131 133 138 140 137 136 139 140 141 145 151 154 152 144 135 133 138 141 140 138 134 128 122 122 122 120 118 120 123 125 125 123 116 107 99 90 79 75 79 85 91 97 102 108 110 108 107 108 108 110 113 114 114 113 112 111 110 111 112 114 115 114 114 114 113 110 107 104 100 95 90 85 84 84 83 82 81 80 77 76 80 82 80 75
85 114 118 118 122 127 127 127 126 124 125 134 144 150 154 153 146 140 140 142 140 136 134 134 133 131 130 129 126 122 122 123 122 120 118 116 113 110 108 102 97 98 101 102 102 103 104 103 104 108 110 111 113 117 117 115 114 112 110 111 113 115 117 119 120 121 120 118 114 111 107 104 102 98 94 92 91 91 90 88 87 86 85 88 90 87 80
337 74 101 107 113 117 118 120 119 115 115 129 142 148 150 149 145 143 141 140 138 135 133 133 134 135 135 133 129 123 121 123 122 115 108 106 109 115 118 116 111 109 111 110 107 104 102 102 104 110 117 120 121 121 120 117 116 115 115 115 116 117 118 120 122 123 124 121 118 113 110 109 110 108 104 99 96 95 94 93 92 92 93 94 93 88 82
279 162 115 117 123 122 120 121 121 119 122 132 140 143 144 145 145 145 143 139 140 142 142 140 140 143 144 141 137 134 133 133 129 122 113 104 104 111 117 119 117 117 119 117 113 110 109 110 111 113 115 118 118 117 115 116 117 119 120 120 120 120 120 121 123 126 128 127 124 121 117 115 116 114 109 104 100 98 98 97 95 95 96 95 92 88 82
267 182 125 127 133 134 133 134 135 134 133 131 130 133 138 143 145 148 146 144 145 150 151 149 148 150 151 149 145 143 143 143 139 135 129 123 124 131 132 127 122 123 124 122 119 117 116 118 119 118 115 114 111 107 106 108 113 118 122 122 121 119 118 118 122 127 129 129 129 127 123 120 120 118 113 109 106 102 100 99 98 97 96 95 92 88 83
218 150 129 130 136 137 136 135 132 129 126 120 115 121 137 143 146 148 150 150 152 155 158 158 156 156 155 150 142 136 135 136 140 146 149 147 146 147 143 133 126 128 131 130 126 122 121 122 123 121 118 116 111 104 103 108 114 120 122 120 119 121 124 124 124 127 128 127 127 126 125 125 124 122 117 115 112 109 107 105 103 101 98 94 90 86 81
147 117 115 121 125 128 130 129 126 125 123 117 114 127 142 147 147 148 150 153 155 157 160 162 160 159 158 155 149 144 139 132 127 142 156 150 142 141 142 136 130 133 137 135 131 128 127 127 125 123 122 118 112 109 115 122 122 120 119 119 121 128 133 134 133 132 132 130 129 129 129 128 127 124 122 120 117 115 113 110 104 98 94 90 86 81 72
117 111 117 123 124 126 131 132 128 126 128 133 140 146 148 146 143 141 143 146 147 148 152 156 156 157 160 160 158 157 154 144 131 137 154 154 149 149 151 144 136 136 138 138 137 138 138 133 128 128 129 125 120 123 131 132 125 121 120 121 122 128 134 137 138 138 136 135 134 134 134 132 130 128 126 122 119 118 116 112 105 99 93 87 79 70 57
114 113 116 121 123 128 136 139 138 139 143 144 145 148 147 141 134 134 139 141 139 138 140 144 148 154 161 165 165 165 165 161 154 157 162 162 159 157 155 149 145 147 148 145 143 145 146 143 141 144 145 143 139 141 145 142 135 132 131 128 127 129 132 134 135 135 137 138 140 140 139 138 137 134 128 123 121 119 116 112 107 102 96 87 70 50 35
106 101 100 105 112 125 139 148 149 152 153 151 148 149 147 141 136 139 143 143 139 136 136 139 144 152 160 165 168 171 174 174 167 163 164 165 164 162 160 157 156 155 154 150 148 150 154 158 160 161 161 160 156 154 154 154 154 152 150 145 140 137 136 138 141 144 145 146 147 148 145 142 138 134 127 121 117 112 111 109 104 90 68 47 31 20 12
101 98 98 101 105 113 134 169 167 161 158 154 153 155 154 148 146 150 153 150 144 139 136 135 141 153 160 163 166 171 174 172 166 162 162 164 166 167 166 163 161 158 157 156 156 158 164 170 172 170 170 171 168 160 155 159 164 167 166 161 156 154 155 157 159 161 160 158 157 156 152 147 145 144 141 136 130 123 116 108 72 349 333 334 341 345 346
102 102 103 101 97 91 81 86 147 165 165 161 159 160 160 152 147 151 157 156 152 148 142 134 132 141 151 152 151 153 156 158 159 159 161 166 170 172 173 173 172 170 166 163 161 162 166 171 173 172 172 173 171 164 158 158 164 172 174 172 170 171 173 175 176 175 171 168 166 165 162 160 161 160 157 157 158 156 142 353 331 323 319 317 317 317 320